DW6619 Weather Reports


Display with metric or nautical units.
time (UTC)temp
F
wind
direction
speed
MPH
gust
MPH
rain 1hr
in
rain 24hr
in
rain mn
in
humidity
%
barometer
mb
20260507130021 54 360 0.0 0.0 0.00 0.32 0.09 71 1012.8
20260507124540 54 360 0.0 0.0 0.00 0.32 0.09 71 1012.8
20260507123035 54 351 0.0 0.0 0.00 0.32 0.09 73 1012.6
20260507121512 54 289 0.0 0.0 0.00 0.32 0.09 78 1012.7
20260507120027 54 355 0.0 0.0 0.00 0.34 0.09 79 1012.7
20260507114521 54 83 0.0 0.0 0.00 0.34 0.09 79 1012.6
20260507113023 54 360 0.0 0.0 0.00 0.34 0.09 79 1012.3
20260507111517 54 85 0.0 0.0 0.00 0.34 0.09 83 1012.1
20260507110033 53 49 0.0 0.0 0.00 0.34 0.09 86 1012.2
20260507104530 54 61 0.0 0.0 0.00 0.34 0.09 87 1012.3
20260507103021 53 9 0.0 0.0 0.00 0.34 0.09 87 1011.9
20260507101543 53 9 0.0 0.0 0.00 0.34 0.09 87 1011.8
20260507100013 53 9 0.0 0.0 0.00 0.34 0.09 87 1011.7
20260507094513 53 328 0.0 0.0 0.00 0.34 0.09 87 1011.5
20260507093013 54 325 0.0 0.0 0.00 0.34 0.09 87 1011.7
20260507091511 54 19 0.0 0.0 0.00 0.34 0.09 87 1011.2
20260507090011 53 20 0.0 0.0 0.00 0.34 0.09 87 1011.3
20260507084528 54 17 0.0 0.0 0.00 0.34 0.09 87 1011.4
20260507083024 54 355 0.0 0.0 0.00 0.34 0.09 87 1011.2
20260507081542 54 329 0.0 0.0 0.00 0.34 0.09 87 1011.2
20260507080041 54 329 0.0 0.0 0.00 0.34 0.09 87 1011.0
20260507074523 54 63 0.0 0.0 0.00 0.34 0.09 87 1010.6
20260507073032 54 211 0.0 0.0 0.00 0.34 0.09 87 1010.8
20260507071528 54 5 0.0 0.0 0.00 0.34 0.09 87 1010.6
20260507070017 55 103 0.0 0.0 0.00 0.34 0.09 87 1010.8
20260507064509 55 5 0.0 0.0 0.00 0.34 0.09 87 1010.7
20260507063025 55 332 0.0 0.0 0.00 0.34 0.09 87 1010.9
20260507061520 56 46 0.0 0.0 0.01 0.34 0.09 87 1010.9
20260507060028 56 35 0.0 0.0 0.03 0.34 0.09 87 1010.6
20260507054511 56 337 0.0 0.0 0.04 0.34 0.09 87 1010.5
20260507053029 56 338 0.0 0.0 0.04 0.33 0.08 87 1010.8
20260507051525 57 61 0.0 0.0 0.06 0.33 0.08 87 1010.6
20260507050044 57 24 0.0 0.0 0.07 0.31 0.06 87 1010.5
20260507044517 58 68 0.0 0.0 0.09 0.30 0.05 87 1010.7
20260507043032 59 284 0.0 0.0 0.08 0.29 0.04 87 1010.7
20260507041523 60 97 0.0 0.0 0.05 0.26 0.01 86 1010.6
20260507040020 61 65 0.0 0.0 0.03 0.24 0.24 85 1010.3
20260507034521 62 96 0.0 0.0 0.00 0.21 0.21 82 1010.2
20260507033015 63 351 0.0 0.0 0.00 0.21 0.21 80 1010.2
20260507031529 63 84 0.0 0.0 0.00 0.21 0.21 80 1010.4
20260507030026 64 327 0.0 0.0 0.00 0.21 0.21 83 1009.8
20260507024524 65 83 0.0 0.0 0.00 0.21 0.21 84 1009.3
20260507023014 65 342 0.0 0.0 0.00 0.21 0.21 84 1009.6
20260507021509 65 320 0.0 0.0 0.00 0.21 0.21 84 1009.5
20260507020024 66 360 0.0 0.0 0.00 0.21 0.21 84 1009.1
20260507014524 67 24 0.0 0.0 0.00 0.21 0.21 85 1009.5
20260507013021 68 304 0.0 0.0 0.00 0.21 0.21 84 1009.0
20260507011541 68 265 0.0 0.0 0.00 0.21 0.21 83 1009.4
20260507010009 69 267 0.0 0.0 0.00 0.21 0.21 82 1009.5
20260507004533 69 267 0.0 0.0 0.00 0.21 0.21 82 1009.0
20260507003030 69 232 0.0 0.0 0.00 0.21 0.21 82 1009.0
20260507001543 69 244 0.0 0.0 0.00 0.21 0.21 82 1009.0
20260507000022 69 253 0.0 0.0 0.00 0.21 0.21 81 1008.8
20260506234522 69 261 0.0 0.0 0.00 0.21 0.21 80 1008.5
20260506233019 69 194 0.0 0.0 0.00 0.21 0.21 80 1008.1
20260506231510 70 200 0.0 0.0 0.00 0.21 0.21 80 1008.1
20260506230035 70 198 0.0 0.0 0.00 0.21 0.21 79 1007.9
20260506224530 70 198 0.0 0.0 0.00 0.21 0.21 79 1008.0
20260506223049 70 207 0.0 0.0 0.00 0.21 0.21 78 1007.8
20260506221524 70 169 0.0 0.0 0.00 0.21 0.21 78 1007.7
20260506220018 70 200 0.0 0.0 0.00 0.21 0.21 78 1008.1
20260506214517 70 200 0.0 0.0 0.00 0.21 0.21 78 1008.0
20260506213033 70 228 1.0 6.0 0.00 0.21 0.21 78 1008.0
20260506211520 70 184 0.0 0.0 0.00 0.21 0.21 78 1008.0
20260506210015 70 188 0.0 9.0 0.00 0.21 0.21 79 1007.9
20260506204548 70 266 0.0 1.0 0.00 0.21 0.21 78 1007.8
20260506203047 70 177 0.0 7.0 0.00 0.21 0.21 78 1007.6
20260506201541 70 215 0.0 11.0 0.00 0.21 0.21 79 1007.7
20260506200033 70 252 0.0 0.0 0.00 0.21 0.21 80 1007.7
20260506194531 69 217 0.0 0.0 0.00 0.21 0.21 80 1007.9
20260506193020 69 190 0.0 3.0 0.00 0.21 0.21 82 1007.9
20260506191519 68 194 0.0 4.0 0.00 0.21 0.21 82 1008.0
20260506190011 68 233 0.0 0.0 0.00 0.21 0.21 83 1008.4
20260506184523 67 191 1.0 12.0 0.00 0.21 0.21 82 1008.6
20260506183041 67 219 0.0 11.0 0.00 0.21 0.21 82 1008.6
20260506181512 67 251 0.0 9.0 0.00 0.21 0.21 83 1008.5
20260506180027 66 246 2.0 9.0 0.00 0.21 0.21 84 1008.8
20260506174521 66 207 0.0 6.0 0.00 0.21 0.21 84 1008.8
20260506173018 65 188 0.0 0.0 0.00 0.21 0.21 84 1008.8
20260506171521 65 150 1.0 8.0 0.00 0.21 0.21 85 1008.9
20260506170037 65 227 2.0 10.0 0.00 0.21 0.21 85 1009.1
20260506164511 65 157 2.0 13.0 0.00 0.21 0.21 86 1009.1
20260506163024 64 165 4.0 12.0 0.00 0.21 0.21 86 1009.2
20260506161517 63 196 1.0 11.0 0.01 0.21 0.21 86 1009.2
20260506160010 62 143 1.0 9.0 0.01 0.21 0.21 86 1009.4
20260506154542 62 217 0.0 8.0 0.02 0.21 0.21 85 1009.4
20260506153017 62 191 0.0 5.0 0.04 0.21 0.21 84 1009.4
20260506151534 61 64 0.0 8.0 0.04 0.20 0.20 84 1009.5
20260506150011 61 196 1.0 11.0 0.04 0.20 0.20 85 1009.8
20260506144509 61 205 0.0 1.0 0.04 0.19 0.19 85 1010.0
20260506143023 61 184 0.0 0.0 0.04 0.17 0.17 85 1010.1
20260506141521 61 355 0.0 7.0 0.08 0.16 0.16 85 1010.2
20260506140035 60 146 0.0 1.0 0.11 0.16 0.16 85 1010.1
20260506134531 60 232 0.0 0.0 0.13 0.15 0.15 86 1010.0
20260506133017 61 175 0.0 0.0 0.11 0.13 0.13 86 1010.2
20260506131514 61 197 0.0 0.0 0.06 0.08 0.08 86 1010.5